FENGYUN 3E

Last updated on Fri Sep 11 2026 00:02:39 GMT+0000 (Coordinated Universal Time)

1 49008U 21062A 26253.60742378 -.00000125 00000+0 -38343-4 0 9991 2 49008 98.7543 256.0813 0001421 157.5812 202.5427 14.19910410268706
UTC large
Height (km)
Speed (km/s)
/
Latitude / Longitude
Inclination (degrees)
Orbital Period (minutes)
Azimuth
Elevation
Range (km)
Doppler Factor

Next 0 passes for location: London (51.5072 / 0.1276)

No passes found over London.
FENGYUN 3E